Location: Spruce Knob
(38.6995°N, 79.5330°W)
Time: 11:14:20
(UTC-04:00)

FO-99 - Visible Passes

Search period start: 21 March 2023 00:00
Search period end: 31 March 2023 00:00
Orbit: 426 x 445 km, 97.1° (Epoch: 21 March)

Date Brightness Start Highest point End Pass type
(mag) Time Alt. Az. Time Alt. Az. Time Alt. Az.
21 Mar ? 21:14:55 10° WSW 21:16:32 13° W 21:18:10 10° WNW visible
22 Mar ? 20:33:46 10° S 20:36:59 44° W 20:40:14 10° NNW visible
23 Mar ? 19:54:22 10° SSE 19:57:34 44° ENE 20:00:47 10° N visible
24 Mar ? 20:47:33 10° SSW 20:50:28 28° W 20:53:25 10° NW visible
25 Mar ? 20:07:29 10° SSE 20:10:48 71° ENE 20:14:09 10° N visible
26 Mar ? 21:01:11 10° SW 21:03:37 19° W 21:06:04 10° NW visible
27 Mar ? 20:20:23 10° S 20:23:42 72° W 20:27:03 10° NNW visible
28 Mar ? 21:14:52 10° WSW 21:16:26 13° W 21:17:59 10° WNW visible
29 Mar ? 20:33:04 10° S 20:36:16 44° W 20:39:29 10° NNW visible
